Regional Weather Roundup
Issued by NWS

Home | Current Version | Previous Version | Graphics & Text | Print | Product List | Glossary On
Versions: 1 2 3 4 5 6 7 8 9 10 11 12 13 14 15 16 17 18 19 20 21 22 23 24 25 26 27 28 29 30 31 32 33 34 35 36 37 38 39 40 41 42 43 44 45 46 47 48 49 50
000
ASUS45 KSLC 211510
RWRUT

UTAH REGIONAL WEATHER ROUNDUP
NATIONAL WEATHER SERVICE SALT LAKE CITY UT
900 AM MDT MON JUL 21 2014

UTZ001>011-023>025-211600-

NORTHERN UTAH

CITY           SKY/WX    TMP DP  RH WIND       PRES   REMARKS
DUGWAY         MOSUNNY   81  28  15 S8        30.12
HILL AFB       SUNNY     73  49  42 E6        30.13R
LOGAN          SUNNY     72  52  49 SW3       30.09R
OGDEN          SUNNY     75  48  38 SE8       30.10R
PROVO AIRPORT  SUNNY     73  50  43 CALM      30.16R
SALT LAKE CITY MOSUNNY   82  36  19 S21       30.06R
VERNAL         SUNNY     70  32  24 E3        30.20R
WENDOVER       SUNNY     75  50  41 E7        30.09R
HEBER CITY     SUNNY     64  46  52 NW5       30.21S
WEST JORDAN    SUNNY     79  52  38 SE16G23   30.12R

$$

UTZ012>022-026-027-211600-

SOUTHERN UTAH

CITY           SKY/WX    TMP DP  RH WIND       PRES   REMARKS
BRYCE CANYON   SUNNY     66  37  34 CALM      30.41R
CEDAR CITY     SUNNY     75  36  24 SW7       30.24R
MILFORD        SUNNY     76  35  22 S12       30.20R
MOAB/CYNLANDS  SUNNY     80  42  25 SE5       30.14R
PRICE          SUNNY     72  38  29 SW3       30.24R
ST GEORGE      SUNNY     84  41  21 E7        30.10R
KANAB            N/A     72  36  26 CALM      30.28R

$$

REGIONAL REPORTS     COLORADO/ARIZONA

CITY           SKY/WX    TMP DP  RH WIND       PRES   REMARKS
CRAIG, CO      SUNNY     63  50  62 NE7       30.26R
GRAND JUNCTION MOSUNNY   76  47  35 SE10      30.17R
RIFLE          SUNNY     69  47  45 E6        30.25R
MONTROSE       PTSUNNY   76  46  34 SE5       30.27R
CORTEZ         SUNNY     72  44  36 NE5       30.30R
PAGE, AZ       SUNNY     83  32  16 NE5       30.18R
GRAND CANYON   SUNNY     70  35  27 SW7       30.37R
KINGMAN        SUNNY     79  42  26 CALM      30.14R
FLAGSTAFF      SUNNY     71  36  27 VRB6      30.40R

$$

REGIONAL REPORTS    NEVADA/IDAHO/WYOMING

CITY           SKY/WX    TMP DP  RH WIND       PRES   REMARKS
LAS VEGAS, NV  SUNNY     87  46  24 S13       29.98R
ELY            SUNNY     72  34  24 S13G21    30.24R
ELKO           MOSUNNY   67  51  56 SW7       30.16R
POCATELLO, ID  SUNNY     76  48  37 SW9       30.09R
BURLEY         MOSUNNY   72  52  49 W9        30.06S
EVANSTON, WY   SUNNY     63  49  60 SW10      30.28R
ROCK SPRINGS   SUNNY     65  42  43 N5        30.25R

$$


USA.gov is the U.S. government's official web portal to all federal, state and local government web resources and services.